Weather Roundup
Issued by NWS Chicago, IL

Home | Current Version | Previous Version | Graphics & Text | Print | Product List | Glossary On
Versions: 1 2 3 4 5 6 7 8 9 10 11 12 13 14 15 16 17 18 19 20 21 22 23 24 25 26 27 28 29 30 31 32 33 34 35 36 37 38 39 40 41 42 43 44 45 46 47 48 49 50
000
NZUS59 KLOT 040103
HRRLOT

CHICAGO AREA WEATHER ROUNDUP
NATIONAL WEATHER SERVICE CHICAGO/ROMEOVILLE IL
700 PM CST SAT DEC 03 2016

NOTE: "FAIR" INDICATES FEW OR NO CLOUDS BELOW 12,000 FEET WITH NO
SIGNIFICANT WEATHER AND/OR OBSTRUCTIONS TO VISIBILITY.

* THESE STATIONS ARE NOT UNDER NWS QUALITY CONTROL. THEY ALSO MAY NOT
  REPORT WEATHER SUCH AS PRECIPITATION OR FOG.

ILZ005-006-012>014-019>023-040200-
NORTHEAST ILLINOIS

CITY           SKY/WX    TMP DP  RH WIND       PRES   REMARKS
OHARE          MOCLDY    31  24  75 S3        30.29F
MIDWAY         MOCLDY    33  23  66 S6        30.31S WCI  28
AURORA         CLOUDY    31  26  82 SE3       30.30S
LANSING*       CLOUDY    29  27  94 CALM      30.31F
WAUKEGAN       CLOUDY    31  25  78 CALM      30.29F
DUPAGE AIRPORT CLOUDY    32  25  75 CALM      30.29S
WHEELING       CLOUDY    29  23  78 CALM      30.31S
NORTHERLY ISL    N/A     33  23  67 S7          N/A  WCI  27
$$

WIZ051-052-058>065-066-070>072-040200-
SOUTHEAST WISCONSIN

CITY           SKY/WX    TMP DP  RH WIND       PRES   REMARKS
MILWAUKEE      CLOUDY    33  20  58 NW3       30.29S
KENOSHA*       CLOUDY    31  25  78 NE3       30.29F
RACINE*        CLOUDY    32  23  69 CALM      30.31S
WAUKESHA       CLOUDY    28  21  74 CALM      30.29F
$$

INZ001>003-010>013-019-020-040200-
NORTHWEST INDIANA

CITY           SKY/WX    TMP DP  RH WIND       PRES   REMARKS
GARY*          PTCLDY    30  27  86 CALM      30.33R
MICHIGAN CITY* NOT AVBL
RENSSELAER*    NOT AVBL
VALPARAISO     CLOUDY    33  23  66 W3        30.31F
$$

LMZ740>746-040200-
SOUTHERN LAKE MICHIGAN

STATION/POSITION TIME  SKY/WX   TEMP WIND        PRES    VSBY
                                AIR  DIR/SP/G
                 (UTC)          (F)  (DEG/KT/KT) (MB)    (MI)
HARRISON CRIB    0040            35  260/  5/  6   N/A
BURNHAM HARBOR   0100            33  190/  4/  6   N/A
CALUMET HARBOR   0030            33  220/  4/  4 1025.9S
BURNS HARBOR     0040            34  220/  6/  7 1027.1R
MICHIGAN CITY    0040            35  230/  6/  8   N/A
$$

ABBREVIATIONS USED IN REMARKS
   TC - TEMPERATURE IN CELSIUS
  WCI - WIND CHILL INDEX
   HX - HEAT INDEX
  VSB - VISIBILITY
$$




USA.gov is the U.S. government's official web portal to all federal, state and local government web resources and services.